EW7034 Weather Reports


Display with metric or nautical units.
time (UTC)temp
F
wind
direction
speed
MPH
gust
MPH
rain 1hr
in
rain 24hr
in
rain mn
in
humidity
%
barometer
mb
20260503004522 48 0.0 0.0 0.00 0.15 0.00 95 1011.9
20260503003020 48 0.0 0.0 0.00 0.15 0.00 95 1011.8
20260503001520 48 0.0 0.0 0.00 0.15 0.00 95 1011.9
20260503000027 48 0.0 0.0 0.00 0.15 0.00 95 1011.8
20260502234518 48 0.0 0.0 0.00 0.15 0.00 95 1011.9
20260502233023 48 0.0 0.0 0.00 0.15 0.00 95 1012.0
20260502231522 48 0.0 0.0 0.00 0.15 0.00 94 1012.0
20260502230024 48 0.0 0.0 0.00 0.15 0.00 94 1012.0
20260502224517 48 0.0 0.0 0.00 0.15 0.15 94 1012.1
20260502223021 49 0.0 0.0 0.00 0.15 0.15 94 1012.1
20260502221501 49 0.0 0.0 0.00 0.15 0.15 94 1012.1
20260502220000 49 0.0 0.0 0.00 0.15 0.15 94 1012.2
20260502214514 49 0.0 0.0 0.00 0.15 0.15 93 1012.2
20260502213034 49 0.0 0.0 0.00 0.15 0.15 93 1012.3
20260502211503 49 0.0 0.0 0.00 0.15 0.15 93 1012.3
20260502210006 50 0.0 0.0 0.01 0.14 0.14 93 1012.4
20260502204509 50 0.0 0.0 0.02 0.14 0.14 93 1012.5
20260502203012 50 0.0 0.0 0.03 0.14 0.14 93 1012.6
20260502201526 50 0.0 0.0 0.04 0.14 0.14 93 1012.5
20260502200004 50 0.0 0.0 0.03 0.13 0.13 93 1012.6
20260502194507 51 0.0 0.0 0.03 0.12 0.12 92 1012.7
20260502193010 51 0.0 0.0 0.03 0.11 0.11 92 1012.7
20260502191522 51 0.0 0.0 0.03 0.10 0.10 92 1012.7
20260502190023 51 0.0 0.0 0.03 0.09 0.09 91 1012.7
20260502184504 51 0.0 0.0 0.02 0.08 0.08 91 1012.8
20260502183010 52 0.0 0.0 0.02 0.07 0.07 91 1012.8
20260502181513 52 0.0 0.0 0.00 0.06 0.06 91 1012.7
20260502163020 52 0.0 0.0 0.02 0.04 0.04 90 1012.9
20260502161508 53 0.0 0.0 0.04 0.04 0.04 89 1013.0
20260502151519 54 0.0 0.0 0.00 0.00 0.00 87 1013.4
20260502123018 55 0.0 0.0 0.00 0.00 0.00 81 1014.7
20260502121508 55 0.0 0.0 0.00 0.00 0.00 80 1015.0
20260502114510 55 0.0 0.0 0.00 0.00 0.00 75 1015.2
20260502113016 56 0.0 0.0 0.00 0.00 0.00 76 1015.1
20260502111519 56 0.0 0.0 0.00 0.00 0.00 76 1015.1
20260502110004 56 0.0 0.0 0.00 0.00 0.00 78 1014.9
20260502104507 55 0.0 0.0 0.00 0.00 0.00 78 1015.3
20260502103018 56 0.0 0.0 0.00 0.00 0.00 76 1015.3
20260502101515 55 0.0 0.0 0.00 0.00 0.00 79 1015.3
20260502091515 54 0.0 0.0 0.00 0.00 0.00 80 1015.7
20260502071511 50 0.0 0.0 0.00 0.00 0.00 88 1015.9
20260502070016 49 0.0 0.0 0.00 0.00 0.00 88 1016.0
20260502064537 48 0.0 0.0 0.00 0.00 0.00 89 1016.0
20260502063017 47 0.0 0.0 0.00 0.00 0.00 91 1016.1
20260502061514 46 0.0 0.0 0.00 0.00 0.00 91 1016.1
20260502060014 46 0.0 0.0 0.00 0.00 0.00 92 1016.1
20260502054517 44 0.0 0.0 0.00 0.00 0.00 93 1016.1
20260502053017 43 0.0 0.0 0.00 0.00 0.00 92 1016.1
20260502051514 43 0.0 0.0 0.00 0.00 0.00 92 1016.1
20260502050022 43 0.0 0.0 0.00 0.00 0.00 92 1016.3
20260502044514 44 0.0 0.0 0.00 0.00 0.00 91 1016.3
20260502043016 44 0.0 0.0 0.00 0.00 0.00 91 1016.2
20260502041506 44 0.0 0.0 0.00 0.00 0.00 91 1016.2
20260502040012 44 0.0 0.0 0.00 0.00 0.00 91 1016.3
20260502034514 45 0.0 0.0 0.00 0.00 0.00 89 1016.3
20260502033015 46 0.0 0.0 0.00 0.00 0.00 89 1016.4
20260502031504 47 0.0 0.0 0.00 0.00 0.00 88 1016.6
20260502030008 48 0.0 0.0 0.00 0.00 0.00 88 1016.7
20260502024514 49 0.0 0.0 0.00 0.00 0.00 88 1017.0
20260502023015 49 0.0 0.0 0.00 0.00 0.00 89 1017.0
20260502021514 49 0.0 0.0 0.00 0.00 0.00 89 1017.1
20260502020006 49 0.0 0.0 0.00 0.00 0.00 89 1017.2
20260502014529 49 0.0 0.0 0.00 0.00 0.00 87 1017.4
20260502013014 49 0.0 0.0 0.00 0.00 0.00 88 1017.6
20260502011515 49 0.0 0.0 0.00 0.00 0.00 89 1017.7
20260502010017 48 0.0 0.0 0.00 0.00 0.00 88 1017.7